User: anonymous   Login
Location: Unspecified
(0.0000°N, 0.0000°E)
Time: 14:38:09
(UTC+02:00)
Language:

Meteor 1-10 Rocket - Orbit

View from above orbital plane
View from above orbital plane
View from above satellite
View from above satellite

Ground track
Ground track

The orbit data is extracted from the following two-line orbital elements,

1 05732U 71120B   15109.12506232  .00000268  00000-0  15403-3 0  9997
2 05732 081.2521 166.2939 0052357 104.4468 256.2519 14.05878194227922
Epoch (UTC): 19 April 2015 03:00:05
Eccentricity: 0.0052357
inclination: 81.2521°
perigee height: 835 km
apogee height: 911 km
right ascension of ascending node: 166.2939°
argument of perigee: 104.4468°
revolutions per day: 14.05878194
mean anomaly at epoch: 256.2519°
orbit number at epoch: 22792

The dashed part of the orbit path shows where the satellite is in the earth's shadow,  

DLR